Hourly Data Report for October 01, 2015

All times are specified in Local Standard Time (LST). Add 1 hour to adjust for Daylight Saving Time where and when it is observed.

TORONTO INTL A
ONTARIO

43°40'36.000" N
79°37'50.000" W
173.40 m
6158731
71624
YYZ

Download Data

Hourly Data (October 2015)
Hourly Data Report for October 1, 2015
Temp Definition
°C
Dew Point Temp Definition
°C
Rel Hum Definition
%
Wind Dir Definition
10's deg

Wind Spd Definition
km/h
Visibility Definition
km
Stn Press Definition
kPa
Hmdx Definition


Wind Chill Definition


Weather Definition


TIME
00:00 Legend Double Dagger 8.5 0.5 57 3 21 24.1 100.39     LegendNANA
01:00 Legend Double Dagger 7.3 0.5 62 3 21 24.1 100.41     Mainly Clear
02:00 Legend Double Dagger 7.0 0.2 62 2 22 24.1 100.45     LegendNANA
03:00 Legend Double Dagger 6.1 0.2 66 2 18 24.1 100.47     LegendNANA
04:00 Legend Double Dagger 5.5 0.1 68 3 20 24.1 100.48     Mainly Clear
05:00 Legend Double Dagger 5.0 0.0 70 3 22 24.1 100.53     LegendNANA
06:00 Legend Double Dagger 4.5 -0.1 72 3 19 24.1 100.55     LegendNANA
07:00 Legend Double Dagger 4.8 0.0 71 3 21 24.1 100.61     Mainly Clear
08:00 Legend Double Dagger 6.2 -0.1 64 3 23 24.1 100.66     LegendNANA
09:00 Legend Double Dagger 8.5 0.7 58 4 23 24.1 100.69     LegendNANA
10:00 Legend Double Dagger 10.6 0.9 51 5 24 24.1 100.67     Mainly Clear
11:00 Legend Double Dagger 11.8 0.6 46 4 25 24.1 100.67     LegendNANA
12:00 Legend Double Dagger 12.3 0.8 45 7 21 24.1 100.68     LegendNANA
13:00 Legend Double Dagger 13.9 0.9 41 3 28 24.1 100.63     Mainly Clear
14:00 Legend Double Dagger 14.6 0.2 37 5 16 24.1 100.61     LegendNANA
15:00 Legend Double Dagger 14.9 -0.4 35 4 26 24.1 100.59     LegendNANA
16:00 Legend Double Dagger 14.9 -0.4 35 6 18 24.1 100.58     Mainly Clear
17:00 Legend Double Dagger 14.3 -1.3 34 6 21 24.1 100.61     LegendNANA
18:00 Legend Double Dagger 13.4 -0.6 38 6 16 24.1 100.69     LegendNANA
19:00 Legend Double Dagger 12.5 -0.7 40 5 18 24.1 100.75     Mainly Clear
20:00 Legend Double Dagger 11.2 0.1 46 4 16 24.1 100.81     LegendNANA
21:00 Legend Double Dagger 10.6 -0.8 45 5 23 24.1 100.88     LegendNANA
22:00 Legend Double Dagger 9.0 -0.3 52 4 21 24.1 100.88     Mainly Clear
23:00 Legend Double Dagger 8.7 -0.6 52 4 21 24.1 100.85     LegendNANA

Notes on Data Quality.

Legend

  • E = Estimated
  • M = Missing
  • NA = Not Available
  • ‡ = Partner data that is not subject to review by the National Climate Archives
Date modified: